Simultaneous Nadir Overpasses (SNOs) Predictions

Prediction of SNOs between GOES-17 and METOP-C Satellite Orbit:

Table of predicted SNOs for the next 14.0 days since TLE Epoch: 5/25/2019
Index Date Time (GOES-17) GOES-17 Lat,Lon METOP-C Lat,Lon Distance(km) Time Diff (sec)
1 05/25/2019 06:35:07 -0.00,-137.18 0.17,-136.46 82.34 80
2 05/26/2019 18:53:59 0.00,-137.21 0.88,-141.01 434.25 80
3 05/27/2019 18:36:00 0.01,-137.21 -0.26,-136.03 134.56 80
4 05/29/2019 06:55:02 -0.01,-137.17 -0.77,-140.63 393.40 80
5 05/30/2019 06:31:42 -0.01,-137.16 0.32,-135.63 174.74 80
6 05/31/2019 18:50:34 0.01,-137.18 0.68,-140.19 343.36 80
7 06/01/2019 18:32:35 0.01,-137.17 -0.40,-135.19 224.59 80
8 06/03/2019 06:51:36 -0.01,-137.12 -0.61,-139.79 304.49 80
9 06/04/2019 06:28:17 -0.01,-137.10 0.48,-134.79 262.43 80
10 06/05/2019 18:47:09 0.00,-137.10 0.54,-139.36 258.07 80
11 06/06/2019 18:29:11 -0.00,-137.08 -0.60,-134.37 308.62 80




NCC Satellite Simultaneous Nadir Overpasses (SNOs) Prediction Service
